{"data":{"norad_id":63759,"intl_designator":"2025-089J","name":"STARLINK-11703 [DTC]","alt_names":[],"object_type":"PAYLOAD","status":"ACTIVE","operator":null,"country":"US","launch_date":"2025-04-29","launch_site_code":"AFETR","launch_vehicle":null,"mission":null,"orbit_class":"UNKNOWN","rcs_meters":null,"size_class":null,"mass_kg":null,"dimensions":null,"purposes":["comms"],"wikipedia_slug":null,"has_3d_model":false,"image_url":null,"decayed_at":null,"tle_current":{"epoch":"2026-05-25T03:49:02.637984Z","epoch_age_seconds":61391,"freshness":"FRESH","line1":"1 63759U 25089J   26145.15905831  .00187162  00000+0  14231-2 0  9991","line2":"2 63759  43.0001 191.1752 0001408 244.6453 115.4269 15.70946338 62166","mean_motion":15.70946338,"eccentricity":0.0001408,"inclination_deg":43.0001,"raan_deg":191.1752,"arg_perigee_deg":244.6453,"mean_anomaly_deg":115.4269,"bstar":0.0014231,"rev_number":6216,"period_min":91.664493252729,"perigee_km":355.24295140492,"apogee_km":357.13933821049,"semimajor_km":6734.3281448077,"source":"CELESTRAK","updated_at":"2026-05-25T13:38:20.104507Z"}}}